[[{"header":{"parameterUnit":"m.s-1","parameterCategory":1,"la1":30.2991,"la2":30.254,"lo1":-89.0895,"lo2":-89.0444,"dy":0.0017,"dx":0.0017,"nx":28,"ny":28,"refTime":"2025-01-28T03:00:00:Z","depth":0,"parameterNumber":2,"parameterNumberName":"U-component_of_WINDS"},"data":[0,0,0,0,0,0,0,0,0,0,0,0,0,0,0,0,0,0,0,0,0,0,0,0,0,0,0,0,0,0,0,0,0,0,0,0,0,0,0,0,0,0,0,0,0,0,0,0,0,0,0,0,0,0,0,0,0,0,-1.401,-1.401,0,-1.4033,-1.4033,-1.4034,-1.4,-1.3999,-1.3997,-1.3996,-1.4021,-1.4023,-1.4024,0,0,0,0,0,0,0,0,0,0,0,0,0,-1.3936,-1.3938,-1.401,-1.401,-1.4011,-1.4033,-1.4033,-1.4034,-1.4,-1.3999,-1.3997,-1.3996,-1.402,-1.4022,-1.4025,0,0,0,0,0,0,0,0,0,0,0,0,0,-1.3965,-1.3938,-1.401,-1.3996,-1.3995,-1.4033,-1.4034,-1.4034,-1.4,-1.3999,-1.3997,-1.3995,-1.402,-1.4022,-1.4025,-1.4077,0,0,-1.4033,-1.4034,0,0,0,0,0,0,0,0,-1.3963,-1.3968,-1.3998,-1.3997,-1.3996,-1.4012,-1.4017,-1.4048,-1.4001,-1.3999,-1.3996,-1.3994,-1.4019,-1.4022,-1.403,-1.4078,-1.4079,-1.4033,-1.4035,-1.4036,-1.4037,0,0,0,0,0,0,0,-1.3961,-1.3966,-1.4019,-1.3999,-1.3998,-1.3989,-1.3991,-1.4022,-1.4019,-1.3999,-1.3996,-1.3999,-1.4019,-1.4028,-1.4031,-1.408,-1.4033,-1.4035,-1.4037,-1.4038,-1.4171,-1.4173,0,0,0,0,0,0,-1.3961,-1.3965,-1.4018,-1.402,-1.3975,-1.3992,-1.3994,-1.4009,-1.4018,-1.4018,-1.4001,-1.3998,-1.4024,-1.4028,-1.4031,-1.4093,-1.4036,-1.4038,-1.404,-1.4169,-1.4172,-1.4174,0,0,0,0,0,0,-1.396,-1.3966,-1.4017,-1.3992,-1.3998,-1.3995,-1.4012,-1.401,-1.4019,-1.402,-1.4019,-1.4011,-1.4023,-1.4028,-1.4066,-1.4094,-1.404,-1.4042,-1.4167,-1.417,-1.4173,-1.4217,0,0,0,0,0,0,-1.3958,-1.3966,-1.3986,-1.3993,-1.3999,-1.4052,-1.4013,-1.4012,-1.4024,-1.402,-1.4029,-1.4029,-1.4022,-1.4062,-1.4069,-1.4096,-1.4044,-1.4165,-1.4168,-1.4172,-1.4213,-1.4221,-1.4228,0,0,0,0,0,-1.3955,-1.3998,-1.3987,-1.3993,-1.4024,-1.4053,-1.4057,-1.4048,-1.4026,-1.4046,-1.4047,-1.4029,-1.4089,-1.4066,-1.4073,-1.4102,-1.4163,-1.4167,-1.4172,-1.421,-1.422,-1.4228,0,0,0,0,0,0,-1.3994,-1.3998,-1.3986,-1.4032,-1.4043,-1.4048,-1.4073,-1.4058,-1.4076,-1.4071,-1.4059,-1.4061,-1.4102,-1.4106,-1.408,-1.4153,-1.4122,-1.4128,-1.4149,-1.4159,-1.4166,-1.4165,-1.4046,0,0,0,0,0,-1.4008,-1.4032,-1.4034,-1.4074,-1.408,-1.4075,-1.4088,-1.408,-1.409,-1.4094,-1.4098,-1.4109,-1.413,-1.4144,-1.4164,-1.4213,-1.4215,-1.4237,-1.4244,-1.425,-1.4256,-1.4282,-1.4292,-1.4188,-1.4188,-1.4188,0,0,-1.4038,-1.4042,-1.4058,-1.4082,-1.4089,-1.4114,-1.4079,-1.4107,-1.4125,-1.4099,-1.4135,-1.4138,-1.4149,-1.4193,-1.4213,-1.4197,-1.4285,-1.4256,-1.4261,-1.4263,-1.4288,-1.4297,-1.4306,-1.4191,-1.4191,-1.419,0,0,-1.4104,-1.4109,-1.4144,-1.4151,-1.4162,-1.4159,-1.4167,-1.4174,-1.4175,-1.4211,-1.4191,-1.4213,-1.425,-1.4259,-1.4268,-1.4337,-1.4321,-1.4343,-1.4383,-1.4408,-1.4417,-1.4424,-1.4448,-1.4457,-1.4349,-1.4349,-1.4349,0,-1.4139,-1.4175,-1.4163,-1.4192,-1.4203,-1.4179,-1.4214,-1.4222,-1.4239,-1.4248,-1.423,-1.4276,-1.4282,-1.4328,-1.4344,-1.4352,-1.4362,-1.4343,-1.4416,-1.4423,-1.443,-1.4453,-1.4463,-1.4351,-1.4351,-1.4351,-1.4351,0,-1.4218,-1.4243,-1.4269,-1.4286,-1.43,-1.4332,-1.4325,-1.434,-1.433,-1.4329,-1.4366,-1.4372,-1.4392,-1.4402,-1.4393,-1.4447,-1.4437,-1.4418,-1.4387,-1.4443,-1.4464,-1.4473,-1.4355,-1.4354,-1.4354,-1.4353,0,0,-1.431,-1.4319,-1.4329,-1.4336,-1.4346,-1.4366,-1.4396,-1.4416,-1.443,-1.4442,-1.4467,-1.4499,-1.4481,-1.4492,-1.4483,-1.4506,-1.456,-1.4484,-1.4484,-1.4498,-1.4619,-1.4634,-1.4645,-1.4549,-1.4551,-1.4552,-1.4619,0,-1.4376,-1.4429,-1.4418,-1.447,-1.4493,-1.447,-1.4497,-1.4506,-1.4505,-1.4525,-1.4524,-1.4546,-1.4521,-1.4527,-1.4549,-1.4549,-1.4584,-1.4544,-1.4573,-1.4574,-1.4571,-1.4656,-1.4672,-1.4734,-1.4627,-1.4628,-1.4629,0,-1.446,-1.4476,-1.4529,-1.4535,-1.4545,-1.4569,-1.4586,-1.4605,-1.4614,-1.4612,-1.4624,-1.4611,-1.4641,-1.4609,-1.465,-1.4623,-1.4634,-1.4636,-1.4638,-1.4641,-1.4606,-1.4662,-1.4754,-1.4764,-1.4643,-1.4642,-1.4641,0,-1.4523,-1.4557,-1.4593,-1.46,-1.4608,-1.4625,-1.4629,-1.4637,-1.4649,-1.4664,-1.4672,-1.469,-1.47,-1.4715,-1.4707,-1.4684,-1.475,-1.4717,-1.4749,-1.4749,-1.4765,-1.4764,-1.4861,-1.4771,-1.4771,-1.4771,-1.477,0,-1.4598,-1.4632,-1.4621,-1.4644,-1.4681,-1.4669,-1.4706,-1.4707,-1.4714,-1.4736,-1.4718,-1.4739,-1.4727,-1.4748,-1.4742,-1.4777,-1.4782,-1.4781,-1.4779,-1.4783,-1.4783,-1.4791,-1.4786,-1.4773,-1.4772,-1.4772,-1.4772,0,-1.4675,-1.4669,-1.4707,-1.4711,-1.4713,-1.474,-1.4744,-1.4764,-1.4762,-1.479,-1.4796,-1.4792,-1.4815,-1.4808,-1.4833,-1.4829,-1.4874,-1.4866,-1.4871,-1.4869,-1.4902,-1.4899,-1.5007,-1.5021,-1.4922,-1.4923,-1.4924,0,-1.4724,-1.4749,-1.4756,-1.4769,-1.4775,-1.4797,-1.4809,-1.4798,-1.4811,-1.4824,-1.4843,-1.4865,-1.4881,-1.4919,-1.4918,-1.4937,-1.493,-1.4966,-1.4933,-1.4936,-1.4931,-1.493,-1.4933,-1.4974,-1.4975,-1.4976,-1.4976,0,-1.4811,-1.4807,-1.4825,-1.4843,-1.4858,-1.4871,-1.4883,-1.4895,-1.4884,-1.4901,-1.4924,-1.4936,-1.4962,-1.4983,-1.5,-1.5004,-1.4989,-1.4987,-1.4995,-1.5,-1.5002,-1.5002,-1.489,-1.4985,-1.4984,-1.4983,-1.4983,-1.4982,-1.4876,-1.4897,-1.4905,-1.4926,-1.4934,-1.4945,-1.4964,-1.4964,-1.4983,-1.5003,-1.4995,-1.5021,-1.503,-1.5051,-1.5057,-1.5078,-1.5064,-1.5076,-1.5079,-1.5083,-1.5087,-1.4998,-1.5081,-1.5081,-1.508,-1.508,-1.508,0,-1.4963,-1.4966,-1.4986,-1.5002,-1.5019,-1.5002,-1.5014,-1.5029,-1.5053,-1.5062,-1.5078,-1.5105,-1.5125,-1.5126,-1.5145,-1.5161,-1.5155,-1.5167,-1.5166,-1.5167,-1.5098,-1.5089,-1.5172,-1.5172,-1.5172,-1.5172,-1.5172,-1.5172,-1.501,-1.5045,-1.5042,-1.5081,-1.5084,-1.511,-1.5118,-1.5128,-1.5135,-1.5166,-1.5182,-1.5182,-1.5188,-1.5207,-1.5225,-1.5225,-1.5233,-1.5248,-1.5245,-1.5181,-1.5172,-1.5163,-1.5155,-1.5249,-1.525,-1.5312,-1.5312,-1.5313]},{"header":{"parameterUnit":"m.s-1","parameterCategory":1,"la1":30.2991,"la2":30.254,"lo1":-89.0895,"lo2":-89.0444,"dy":0.0017,"dx":0.0017,"nx":28,"ny":28,"refTime":"2025-01-28T03:00:00:Z","depth":0,"parameterNumber":3,"parameterNumberName":"V-component_of_WINDS"},"data":[0,0,0,0,0,0,0,0,0,0,0,0,0,0,0,0,0,0,0,0,0,0,0,0,0,0,0,0,0,0,0,0,0,0,0,0,0,0,0,0,0,0,0,0,0,0,0,0,0,0,0,0,0,0,0,0,0,0,-2.9769,-2.977,0,-2.9806,-2.9806,-2.9807,-2.9765,-2.9763,-2.9762,-2.976,-2.9795,-2.9797,-2.98,0,0,0,0,0,0,0,0,0,0,0,0,0,-2.9661,-2.9663,-2.9769,-2.977,-2.977,-2.9806,-2.9806,-2.9807,-2.9765,-2.9763,-2.9761,-2.976,-2.9794,-2.9797,-2.98,0,0,0,0,0,0,0,0,0,0,0,0,0,-2.9704,-2.9664,-2.9769,-2.9754,-2.9753,-2.9806,-2.9806,-2.9807,-2.9766,-2.9763,-2.9761,-2.9759,-2.9793,-2.9797,-2.98,-2.987,0,0,-2.9811,-2.9813,0,0,0,0,0,0,0,0,-2.9701,-2.9708,-2.9756,-2.9755,-2.9754,-2.9779,-2.9781,-2.9828,-2.9766,-2.9761,-2.976,-2.9758,-2.9791,-2.9795,-2.9807,-2.9871,-2.9873,-2.9812,-2.9814,-2.9815,-2.9816,0,0,0,0,0,0,0,-2.9698,-2.9706,-2.9784,-2.9756,-2.9755,-2.9744,-2.9748,-2.979,-2.9789,-2.9761,-2.9758,-2.9763,-2.979,-2.9804,-2.9807,-2.9873,-2.9812,-2.9815,-2.9817,-2.9818,-2.9996,-2.9999,0,0,0,0,0,0,-2.9698,-2.9704,-2.9783,-2.9785,-2.9721,-2.9748,-2.9752,-2.9773,-2.9788,-2.9788,-2.9765,-2.9761,-2.9799,-2.9803,-2.9808,-2.9891,-2.9815,-2.9819,-2.9821,-2.9994,-2.9997,-3.0,0,0,0,0,0,0,-2.9695,-2.9705,-2.9781,-2.9744,-2.9752,-2.9753,-2.9776,-2.9775,-2.9788,-2.9791,-2.9791,-2.9779,-2.9797,-2.9803,-2.9855,-2.9891,-2.982,-2.9824,-2.9991,-2.9995,-2.9998,-3.0056,0,0,0,0,0,0,-2.9693,-2.9705,-2.9731,-2.9745,-2.9755,-2.9828,-2.9779,-2.9777,-2.9795,-2.979,-2.9804,-2.9804,-2.9796,-2.985,-2.9859,-2.9895,-2.9826,-2.9987,-2.9993,-2.9997,-3.0051,-3.0061,-3.0071,0,0,0,0,0,-2.9689,-2.9745,-2.9733,-2.9743,-2.9788,-2.983,-2.9836,-2.9826,-2.9798,-2.9824,-2.9827,-2.9804,-2.9886,-2.9855,-2.9865,-2.9903,-2.9985,-2.9991,-2.9997,-3.0047,-3.0059,-3.007,0,0,0,0,0,0,-2.9735,-2.9747,-2.9733,-2.9796,-2.9813,-2.9823,-2.9856,-2.9839,-2.9864,-2.9858,-2.9843,-2.9847,-2.9902,-2.9907,-2.9873,-2.9971,-2.9931,-2.9939,-2.9966,-2.9978,-2.9987,-2.9985,-2.9829,0,0,0,0,0,-2.9753,-2.9787,-2.9795,-2.9849,-2.9859,-2.9856,-2.9874,-2.9865,-2.9881,-2.9888,-2.9893,-2.9909,-2.9939,-2.9958,-2.9986,-3.0051,-3.0054,-3.0082,-3.0092,-3.01,-3.0107,-3.0143,-3.0156,-3.0019,-3.0019,-3.0019,0,0,-2.979,-2.98,-2.9822,-2.9859,-2.9871,-2.9906,-2.9862,-2.9901,-2.9926,-2.9893,-2.9943,-2.9948,-2.9964,-3.0023,-3.005,-3.003,-3.0146,-3.0107,-3.0114,-3.0117,-3.015,-3.0163,-3.0175,-3.0023,-3.0022,-3.0021,0,0,-2.9874,-2.9886,-2.9933,-2.9946,-2.9965,-2.9963,-2.9974,-2.9988,-2.999,-3.004,-3.0016,-3.0045,-3.0096,-3.011,-3.0123,-3.0214,-3.0194,-3.0223,-3.0274,-3.0309,-3.032,-3.0329,-3.0362,-3.0374,-3.023,-3.023,-3.023,0,-2.9917,-2.997,-2.9959,-3.0,-3.0017,-2.9989,-3.0037,-3.0049,-3.0076,-3.0088,-3.0065,-3.0129,-3.0138,-3.0201,-3.0223,-3.0234,-3.0247,-3.0221,-3.0319,-3.0329,-3.0337,-3.0368,-3.0381,-3.0233,-3.0233,-3.0233,-3.0232,0,-3.0022,-3.0059,-3.0094,-3.0122,-3.0143,-3.0187,-3.0182,-3.0204,-3.0193,-3.0194,-3.0244,-3.0255,-3.0284,-3.0298,-3.0287,-3.0359,-3.0346,-3.0322,-3.0281,-3.0354,-3.0383,-3.0395,-3.0238,-3.0237,-3.0236,-3.0235,0,0,-3.0137,-3.0159,-3.0172,-3.0185,-3.0204,-3.0232,-3.0274,-3.0304,-3.0323,-3.0342,-3.0377,-3.0422,-3.04,-3.0415,-3.0405,-3.0436,-3.0508,-3.0408,-3.0408,-3.0426,-3.0588,-3.0606,-3.062,-3.0494,-3.0496,-3.0498,-3.0587,0,-3.0222,-3.0297,-3.0289,-3.036,-3.0394,-3.0369,-3.0406,-3.0421,-3.0423,-3.0451,-3.0452,-3.0484,-3.0452,-3.0461,-3.0491,-3.0493,-3.054,-3.0486,-3.0527,-3.0528,-3.0524,-3.0636,-3.0655,-3.0738,-3.0598,-3.06,-3.0601,0,-3.0332,-3.0357,-3.0432,-3.0447,-3.0461,-3.0494,-3.0521,-3.0549,-3.0566,-3.0564,-3.0582,-3.0567,-3.0609,-3.0568,-3.0626,-3.0589,-3.0605,-3.0609,-3.0612,-3.0615,-3.0569,-3.0643,-3.0764,-3.0777,-3.0619,-3.0617,-3.0616,0,-3.0409,-3.0461,-3.0513,-3.0524,-3.0543,-3.0567,-3.0576,-3.059,-3.0609,-3.0632,-3.0644,-3.0671,-3.0686,-3.0707,-3.07,-3.067,-3.0759,-3.0717,-3.0759,-3.076,-3.078,-3.0779,-3.0906,-3.0789,-3.0789,-3.0789,-3.0788,0,-3.0506,-3.0553,-3.0548,-3.058,-3.0632,-3.0621,-3.0673,-3.0678,-3.0691,-3.0723,-3.0703,-3.0733,-3.0721,-3.0751,-3.0745,-3.0794,-3.0801,-3.0801,-3.0799,-3.0803,-3.0803,-3.0814,-3.0808,-3.0792,-3.0791,-3.0791,-3.079,0,-3.0601,-3.0599,-3.0655,-3.0668,-3.0672,-3.071,-3.0721,-3.0751,-3.0751,-3.0792,-3.0801,-3.0801,-3.0834,-3.0829,-3.0866,-3.0862,-3.0924,-3.0914,-3.0919,-3.0917,-3.096,-3.0956,-3.1099,-3.1117,-3.0988,-3.0989,-3.099,0,-3.0663,-3.0699,-3.0717,-3.0737,-3.0748,-3.0781,-3.0801,-3.0792,-3.0812,-3.0835,-3.0862,-3.0894,-3.0919,-3.0974,-3.0977,-3.1005,-3.0997,-3.1045,-3.1001,-3.1004,-3.0998,-3.0996,-3.1,-3.1053,-3.1055,-3.1056,-3.1057,0,-3.0774,-3.0771,-3.0801,-3.083,-3.0854,-3.0877,-3.0897,-3.0915,-3.0907,-3.0932,-3.0967,-3.0987,-3.1025,-3.1057,-3.1084,-3.1091,-3.1073,-3.1071,-3.1082,-3.1087,-3.1089,-3.1089,-3.0943,-3.1068,-3.1067,-3.1066,-3.1065,-3.1065,-3.0854,-3.0886,-3.0903,-3.0937,-3.0951,-3.0971,-3.1,-3.1004,-3.1034,-3.1065,-3.1058,-3.1097,-3.1113,-3.1148,-3.1158,-3.1189,-3.1171,-3.1187,-3.1191,-3.1196,-3.1201,-3.1084,-3.1193,-3.1193,-3.1193,-3.1192,-3.1192,0,-3.0964,-3.0975,-3.1006,-3.1036,-3.1062,-3.1044,-3.1065,-3.1088,-3.1124,-3.1141,-3.1167,-3.1207,-3.1238,-3.1244,-3.1273,-3.1297,-3.1289,-3.1305,-3.1303,-3.1305,-3.1215,-3.1203,-3.131,-3.131,-3.131,-3.131,-3.131,-3.131,-3.1025,-3.1077,-3.1077,-3.1136,-3.1145,-3.1185,-3.1199,-3.1217,-3.1231,-3.1277,-3.1304,-3.1308,-3.132,-3.135,-3.1378,-3.1379,-3.1391,-3.141,-3.1408,-3.1323,-3.1312,-3.13,-3.1289,-3.1413,-3.1413,-3.1495,-3.1496,-3.1497]}]]